• In Deutschland
  • Länderverzeichnis
  • Für 7 Tage
  • Wassertemperatur
  • Satellitenkarten
  • Wetterkarte
  • Widgets
  • user-avatar
    Anmelden

    Stündliche Wetter Sewan

    Heute, 29 Juni, Donnerstag

    Zeit Temperatur Niederschläge Wind Luftdruck Luftfeuchtigkeit
    00:00 +19°C° 0,2 mm 2 m/S 641 mmHg 78%
    01:00 +18°C° 0,5 mm 2 m/S 640 mmHg 79%
    02:00 +18°C° 0,5 mm 2 m/S 640 mmHg 81%
    03:00 +18°C° 0,5 mm 2 m/S 640 mmHg 82%
    04:00 +19°C° 0,2 mm 1 m/S 641 mmHg 81%
    05:00 +20°C° 0,2 mm 1 m/S 641 mmHg 80%
    06:00 +20°C° 0,2 mm 1 m/S 641 mmHg 79%
    07:00 +22°C° 0,1 mm 1 m/S 642 mmHg 69%
    08:00 +24°C° 0,1 mm 1 m/S 642 mmHg 60%
    09:00 +26°C° 0,1 mm 1 m/S 643 mmHg 51%
    10:00 +28°C° 0,2 mm 1 m/S 643 mmHg 46%
    11:00 +29°C° 0,2 mm 1 m/S 643 mmHg 42%
    12:00 +31°C° 0,2 mm 1 m/S 643 mmHg 37%
    13:00 +31°C° 0,2 mm 1 m/S 643 mmHg 36%
    14:00 +31°C° 0,2 mm 1 m/S 642 mmHg 36%
    15:00 +31°C° 0,2 mm 1 m/S 642 mmHg 35%
    16:00 +30°C° 0,5 mm 2 m/S 642 mmHg 41%
    17:00 +28°C° 0,5 mm 2 m/S 641 mmHg 48%
    18:00 +27°C° 0,5 mm 2 m/S 641 mmHg 55%
    19:00 +25°C° 0,6 mm 2 m/S 641 mmHg 62%
    20:00 +21°C° 0,6 mm 2 m/S 641 mmHg 70%
    21:00 +19°C° 0,6 mm 2 m/S 640 mmHg 77%
    22:00 +18°C° 0,3 mm 2 m/S 640 mmHg 78%
    23:00 +18°C° 0,3 mm 2 m/S 640 mmHg 80%

    Morgen, 30 Juni, Freitag

    Zeit Temperatur Niederschläge Wind Luftdruck Luftfeuchtigkeit
    00:00 +17°C° 0,3 mm 2 m/S 640 mmHg 81%
    01:00 +17°C° 0,2 mm 2 m/S 640 mmHg 82%
    02:00 +16°C° 0,2 mm 2 m/S 640 mmHg 84%
    03:00 +16°C° 0,2 mm 1 m/S 640 mmHg 85%
    04:00 +16°C° 0,1 mm 1 m/S 640 mmHg 83%
    05:00 +18°C° 0,1 mm 1 m/S 641 mmHg 81%
    06:00 +19°C° 0,1 mm 1 m/S 641 mmHg 79%
    07:00 +21°C° 0 mm 1 m/S 642 mmHg 70%
    08:00 +23°C° 0 mm 1 m/S 642 mmHg 60%
    09:00 +24°C° 0 mm 1 m/S 643 mmHg 51%
    10:00 +25°C° 0,3 mm 1 m/S 642 mmHg 49%
    11:00 +26°C° 0,3 mm 2 m/S 642 mmHg 47%
    12:00 +28°C° 0,3 mm 2 m/S 642 mmHg 45%
    13:00 +27°C° 0,9 mm 2 m/S 642 mmHg 47%
    14:00 +27°C° 0,9 mm 2 m/S 642 mmHg 49%
    15:00 +27°C° 0,9 mm 2 m/S 641 mmHg 52%
    16:00 +26°C° 0,8 mm 2 m/S 641 mmHg 55%
    17:00 +25°C° 0,8 mm 2 m/S 641 mmHg 59%
    18:00 +24°C° 0,8 mm 3 m/S 641 mmHg 62%
    19:00 +21°C° 0,5 mm 3 m/S 641 mmHg 68%
    20:00 +19°C° 0,5 mm 2 m/S 641 mmHg 73%
    21:00 +17°C° 0,5 mm 2 m/S 641 mmHg 78%
    22:00 +17°C° 0,2 mm 2 m/S 641 mmHg 78%
    23:00 +16°C° 0,2 mm 2 m/S 641 mmHg 79%

    übermorgen, 1 Juli, Samstag

    Zeit Temperatur Niederschläge Wind Luftdruck Luftfeuchtigkeit
    00:00 +16°C° 0,2 mm 2 m/S 641 mmHg 79%
    01:00 +15°C° 0 mm 2 m/S 641 mmHg 79%
    02:00 +15°C° 0 mm 2 m/S 641 mmHg 79%
    03:00 +14°C° 0 mm 2 m/S 641 mmHg 79%
    04:00 +15°C° 0 mm 2 m/S 641 mmHg 75%
    05:00 +16°C° 0 mm 1 m/S 642 mmHg 72%
    06:00 +16°C° 0 mm 1 m/S 642 mmHg 69%
    07:00 +20°C° 0 mm 1 m/S 643 mmHg 59%
    08:00 +22°C° 0 mm 1 m/S 644 mmHg 48%
    09:00 +25°C° 0 mm 1 m/S 644 mmHg 38%
    10:00 +26°C° 0 mm 1 m/S 644 mmHg 34%
    11:00 +28°C° 0 mm 1 m/S 645 mmHg 30%
    12:00 +30°C° 0 mm 1 m/S 645 mmHg 26%
    13:00 +30°C° 0 mm 1 m/S 645 mmHg 26%
    14:00 +30°C° 0 mm 2 m/S 644 mmHg 26%
    15:00 +30°C° 0 mm 2 m/S 644 mmHg 27%
    16:00 +29°C° 0 mm 2 m/S 644 mmHg 31%
    17:00 +28°C° 0 mm 2 m/S 643 mmHg 35%
    18:00 +27°C° 0 mm 2 m/S 643 mmHg 39%
    19:00 +24°C° 0,1 mm 2 m/S 643 mmHg 46%
    20:00 +20°C° 0,1 mm 2 m/S 643 mmHg 54%
    21:00 +18°C° 0,1 mm 2 m/S 643 mmHg 61%
    22:00 +17°C° 0 mm 2 m/S 642 mmHg 62%
    23:00 +16°C° 0 mm 2 m/S 642 mmHg 62%

    2 Juli, Sonntag

    Zeit Temperatur Niederschläge Wind Luftdruck Luftfeuchtigkeit
    00:00 +16°C° 0 mm 2 m/S 642 mmHg 62%
    01:00 +15°C° 0 mm 2 m/S 642 mmHg 61%
    02:00 +15°C° 0 mm 2 m/S 642 mmHg 60%
    03:00 +15°C° 0 mm 2 m/S 641 mmHg 60%
    04:00 +15°C° 0 mm 1 m/S 642 mmHg 57%
    05:00 +16°C° 0 mm 1 m/S 642 mmHg 55%
    06:00 +18°C° 0 mm 1 m/S 643 mmHg 53%
    07:00 +21°C° 0 mm 1 m/S 643 mmHg 45%
    08:00 +24°C° 0 mm 1 m/S 644 mmHg 37%
    09:00 +27°C° 0 mm 1 m/S 645 mmHg 29%
    10:00 +28°C° 0 mm 1 m/S 644 mmHg 26%
    11:00 +29°C° 0 mm 1 m/S 644 mmHg 24%
    12:00 +31°C° 0 mm 2 m/S 644 mmHg 22%
    13:00 +31°C° 0 mm 2 m/S 644 mmHg 22%
    14:00 +31°C° 0 mm 2 m/S 644 mmHg 22%
    15:00 +32°C° 0 mm 2 m/S 643 mmHg 22%
    16:00 +31°C° 0 mm 2 m/S 643 mmHg 26%
    17:00 +30°C° 0 mm 2 m/S 643 mmHg 31%
    18:00 +28°C° 0 mm 1 m/S 642 mmHg 35%
    19:00 +26°C° 0 mm 2 m/S 642 mmHg 45%
    20:00 +23°C° 0 mm 2 m/S 642 mmHg 55%
    21:00 +19°C° 0 mm 2 m/S 641 mmHg 65%
    22:00 +18°C° 0 mm 2 m/S 641 mmHg 67%
    23:00 +18°C° 0 mm 2 m/S 641 mmHg 68%

    3 Juli, Montag

    Zeit Temperatur Niederschläge Wind Luftdruck Luftfeuchtigkeit
    00:00 +17°C° 0 mm 2 m/S 641 mmHg 70%
    01:00 +18°C° 0 mm 1 m/S 641 mmHg 70%
    02:00 +16°C° 0 mm 1 m/S 640 mmHg 71%
    03:00 +16°C° 0 mm 1 m/S 640 mmHg 71%
    04:00 +18°C° 0 mm 1 m/S 640 mmHg 68%
    05:00 +19°C° 0 mm 1 m/S 641 mmHg 64%
    06:00 +20°C° 0 mm 1 m/S 641 mmHg 60%
    07:00 +23°C° 0 mm 1 m/S 642 mmHg 50%
    08:00 +26°C° 0 mm 1 m/S 642 mmHg 40%
    09:00 +29°C° 0 mm 1 m/S 643 mmHg 31%
    10:00 +30°C° 0 mm 1 m/S 643 mmHg 28%
    11:00 +32°C° 0 mm 1 m/S 643 mmHg 25%
    12:00 +34°C° 0 mm 2 m/S 643 mmHg 22%
    13:00 +34°C° 0 mm 2 m/S 643 mmHg 22%
    14:00 +34°C° 0 mm 2 m/S 642 mmHg 21%
    15:00 +34°C° 0 mm 2 m/S 642 mmHg 21%
    16:00 +32°C° 0,1 mm 1 m/S 642 mmHg 26%
    17:00 +31°C° 0,1 mm 1 m/S 641 mmHg 31%
    18:00 +30°C° 0,1 mm 1 m/S 641 mmHg 36%
    19:00 +27°C° 0,1 mm 1 m/S 640 mmHg 43%
    20:00 +24°C° 0,1 mm 1 m/S 640 mmHg 51%
    21:00 +21°C° 0,1 mm 1 m/S 639 mmHg 59%
    22:00 +20°C° 0 mm 1 m/S 639 mmHg 62%
    23:00 +19°C° 0 mm 1 m/S 639 mmHg 65%

    4 Juli, Dienstag

    Zeit Temperatur Niederschläge Wind Luftdruck Luftfeuchtigkeit
    00:00 +19°C° 0 mm 1 m/S 639 mmHg 68%
    01:00 +18°C° 0 mm 1 m/S 639 mmHg 69%
    02:00 +18°C° 0 mm 1 m/S 638 mmHg 71%
    03:00 +16°C° 0 mm 1 m/S 638 mmHg 72%
    04:00 +19°C° 0 mm 1 m/S 638 mmHg 70%
    05:00 +20°C° 0 mm 1 m/S 639 mmHg 67%
    06:00 +19°C° 0 mm 0 m/S 640 mmHg 64%
    07:00 +24°C° 0 mm 1 m/S 640 mmHg 52%
    08:00 +27°C° 0 mm 1 m/S 641 mmHg 41%
    09:00 +30°C° 0 mm 1 m/S 642 mmHg 29%
    10:00 +32°C° 0 mm 1 m/S 642 mmHg 27%
    11:00 +33°C° 0 mm 1 m/S 642 mmHg 24%
    12:00 +35°C° 0 mm 1 m/S 642 mmHg 22%
    13:00 +35°C° 0 mm 1 m/S 642 mmHg 22%
    14:00 +35°C° 0 mm 1 m/S 641 mmHg 22%
    15:00 +35°C° 0 mm 1 m/S 641 mmHg 22%
    16:00 +34°C° 0,1 mm 1 m/S 641 mmHg 26%
    17:00 +32°C° 0,1 mm 1 m/S 641 mmHg 31%
    18:00 +31°C° 0,1 mm 1 m/S 640 mmHg 36%
    19:00 +28°C° 0,1 mm 1 m/S 640 mmHg 44%
    20:00 +25°C° 0,1 mm 2 m/S 639 mmHg 53%
    21:00 +23°C° 0,1 mm 2 m/S 639 mmHg 61%
    22:00 +21°C° 0,2 mm 2 m/S 639 mmHg 63%
    23:00 +20°C° 0,2 mm 2 m/S 639 mmHg 65%
    Mehr zeigen